Weather Roundup
Issued by NWS Springfield, MO

Home | Current Version | Previous Version | Text Only | Print | Product List | Glossary On
Versions: 1 2 3 4 5 6 7 8 9 10 11 12 13 14 15 16 17 18 19 20 21 22 23 24 25 26 27 28 29 30 31 32 33 34 35 36 37 38 39 40 41 42 43 44 45 46 47 48 49 50
000
NZUS99 KSGF 290707
HRRSGF

HOURLY WEATHER
NATIONAL WEATHER SERVICE SPRINGFIELD MO
200 AM CDT FRI MAY 29 2015

......SGF CWA......

CITY           SKY/WX    TMP DP  RH WIND       PRES   REMARKS
SPRINGFIELD    MOCLDY    66  62  87 SE12      29.97F
JOPLIN         CLOUDY    68  64  87 SE8       29.95F
WEST PLAINS    CLOUDY    70  64  81 S7        30.05F
ROLLA          MOCLDY    68  65  90 S9        29.99F
OSAGE BEACH    CLOUDY    64  63  94 S6        29.98F
BRANSON        CLOUDY    66  63  88 S8        30.02F

......SURROUNDING SGF CWA......

CITY           SKY/WX    TMP DP  RH WIND       PRES   REMARKS
CHANUTE        MOCLDY    68  66  93 SE7       29.94F
PARSONS        CLOUDY    70  68  93 CALM      29.95S
COFFEYVILLE    CLOUDY    70  67  90 S9        29.93S
EMPORIA        CLOUDY    67  65  93 SE7       29.92F
GROVE OK       CLOUDY    70  64  83 SE6       29.96F
ROGERS AR      MOCLDY    66  62  87 SE8       30.01F
SILOAM SPRINGS MOCLDY    64  57  77 SE7       30.00S
HARRISON AR    MOCLDY    64  62  93 SE9       30.03F
NEAR YELLVILLE CLOUDY    66  63  88 CALM      30.01F

......KANSAS AND MISSOURI......

CITY           SKY/WX    TMP DP  RH WIND       PRES   REMARKS
KANSAS CTY INT MOCLDY    64  63  96 SE8       29.95F
DOWNTOWN KC    MOCLDY    66  61  84 CALM      29.94F
COLUMBIA       CLOUDY    66  65  96 S9        29.97F
SEDALIA        CLOUDY    67  65  93 SW3       29.98F
ST JOSEPH      MOCLDY    65  63  93 S6        29.95F
ST LOUIS       CLOUDY    74  64  71 S8        30.03F
SPIRIT OF STL  CLOUDY   N/A N/A N/A SE3       30.01F
KIRKSVILLE     CLOUDY    65  64  97 SE3       29.99F
WICHITA        CLOUDY    66  63  90 NE9       29.91F
TOPEKA         CLOUDY    66  64  93 SE7       29.95F
OLATHE         MOCLDY    63  63 100 SE7       29.94F

......TENNESSEE......

CITY           SKY/WX    TMP DP  RH WIND       PRES   REMARKS
MEMPHIS        PTCLDY    72  66  81 S5        30.05F
NASHVILLE      CLEAR     67  65  93 S5        30.11F

......ARKANSAS.......

CITY           SKY/WX    TMP DP  RH WIND       PRES   REMARKS
FAYETTEVILLE   MOCLDY    66  61  84 SE5       30.00F
FT SMITH       CLOUDY    68  65  90 E8        29.99S
LITTLE ROCK    CLOUDY    68  65  90 NE3       30.02F

......OKLAHOMA.......

CITY           SKY/WX    TMP DP  RH WIND       PRES   REMARKS
TULSA          CLOUDY    72  69  90 SE7       29.94R
PONCA CITY     CLOUDY    72  70  93 W3        29.93R
MCALESTER      LGT RAIN  68  66  93 CALM      29.97F FOG
OKLAHOMA CITY  CLOUDY    66  60  81 NW8       29.93R

......IOWA............

CITY           SKY/WX    TMP DP  RH WIND       PRES   REMARKS
DES MOINES     PTCLDY    65  62  90 S7        29.95F
QUAD CITIES    CLOUDY    67  60  78 CALM      30.00F

......ILLINOIS........

CITY           SKY/WX    TMP DP  RH WIND       PRES   REMARKS
QUINCY         CLOUDY    68  64  87 SE6       30.00F
CHICAGO        MOCLDY    64  57  78 S9        30.04F




USA.gov is the U.S. government's official web portal to all federal, state and local government web resources and services.